Tracking 19846 objects as of 18-Sep-2019
HD Live streaming from Space Station
objects crossing your sky now

COSMOS 450

Track COSMOS 450 now!
10-day predictions
COSMOS 450 is classified as:


NORAD ID: 5553
Int'l Code: 1971-086G
Perigee: 1,469.2 km
Apogee: 1,535.7 km
Inclination: 74.0 °
Period: 115.9 minutes
Semi major axis: 7873 km
RCS: 0.7187 m2 (medium)
Launch date: October 13, 1971
Source: Commonwealth of Independent States (former USSR) (CIS)
Launch site: PLESETSK MISSILE AND SPACE COMPLEX (PKMTR)
aabbcc
Your satellite tracking list
Your tracking list is empty




NASA's NSSDC Master Catalog

Two Line Element Set (TLE):
1  5553U 71086G   19260.73854522 -.00000002 +00000-0 +94715-4 0  9997
2  5553 074.0306 331.3810 0042212 140.1296 355.4432 12.42660352174259
Source of the keplerian elements: AFSPC